Lincoln, IL

8:19 AM CST on February 13, 2016 (GMT -0600)
Lincoln

Weather History for KAAA - October, 2012

Change the Weather History Date:

Thursday, October 25, 2012

  Actual Average (KSPI) Record (KSPI)
Temperature  
Mean Temperature 62 °F 52 °F  
Max Temperature 79 °F 63 °F 86 °F (1940)
Min Temperature 44 °F 42 °F 20 °F (1887)
Degree Days  
Heating Degree Days 3 13  
Month to date heating degree days 243  
Since 1 July heating degree days 324  
Cooling Degree Days 0 0  
Month to date cooling degree days 19  
Year to date cooling degree days 1118  
Growing Degree Days 12 (Base 50)    
Moisture  
Dew Point 55 °F    
Average Humidity 77    
Maximum Humidity 93    
Minimum Humidity 57    
Precipitation  
Precipitation 0.00 in 0.10 in 2.06 in (1932)
Month to date precipitation 2.53  
Year to date precipitation 31.08  
Snow  
Snow 0.00 in 0.00 in T in (1980)
Month to date snowfall 0.0  
Since 1 July snowfall 0.0  
Since 1 September snowfall 0.0  
Snow Depth -    
Sea Level Pressure  
Sea Level Pressure 29.87 in    
Wind  
Wind Speed 13 mph (SW)    
Max Wind Speed 24 mph    
Max Gust Speed 30 mph    
Visibility 10 miles    
Events Rain    
T = Trace of Precipitation, MM = Missing Value Source: NWS Daily Summary

Daily Weather History Graph

Daily Weather History Graph

Search for Another Location

Airport or City:

Trip Planner

Search our weather history database for the weather conditions in past years. The results will help you decide how hot, cold, wet, or windy it might be!

Date:

Astronomy

Oct. 25, 2012 Rise Set
Actual Time 7:19 AM CDT 6:02 PM CDT
Civil Twilight 6:51 AM CDT 6:30 PM CDT
Nautical Twilight 6:19 AM CDT 7:02 PM CDT
Astronomical Twilight 5:48 AM CDT 7:33 PM CDT
Moon 3:49 PM CDT (10/25) 3:15 AM CDT (10/25)
Length of Visible Light 11h 38m
Length of Day
10h 43m
Waxing Gibbous, 84% of the Moon is Illuminated
Oct 25
Waxing Gibbous
Oct 29
Full
Nov 6
Last Quarter
Nov 13
New
Nov 20
First Quarter

Hourly Weather History & Observations

Time (CDT) Temp. Windchill Dew Point Humidity Pressure Visibility Wind Dir Wind Speed Gust Speed Precip Events Conditions
12:15 AM 68.0 °F - 61.2 °F 79% 29.86 in 10.0 mi South 12.7 mph - N/A   Clear
12:35 AM 67.3 °F - 61.2 °F 81% 29.86 in 10.0 mi South 12.7 mph - N/A   Clear
12:55 AM 67.1 °F - 61.2 °F 81% 29.86 in 10.0 mi South 11.5 mph - N/A   Clear
1:15 AM 66.4 °F - 61.0 °F 83% 29.85 in 10.0 mi South 11.5 mph - N/A   Clear
1:35 AM 66.2 °F - 61.0 °F 83% 29.85 in 10.0 mi South 10.4 mph - N/A   Clear
1:55 AM 66.0 °F - 60.8 °F 83% 29.85 in 10.0 mi South 11.5 mph - N/A   Clear
2:15 AM 66.2 °F - 60.8 °F 83% 29.84 in 10.0 mi South 11.5 mph - N/A   Clear
2:35 AM 66.4 °F - 60.8 °F 82% 29.84 in 10.0 mi South 12.7 mph - N/A   Clear
2:55 AM 66.7 °F - 60.8 °F 81% 29.84 in 10.0 mi South 12.7 mph - N/A   Clear
3:15 AM 66.2 °F - 60.8 °F 83% 29.84 in 10.0 mi South 10.4 mph - N/A   Clear
3:35 AM 65.8 °F - 60.6 °F 83% 29.84 in 10.0 mi South 11.5 mph - N/A   Clear
3:55 AM 65.8 °F - 60.8 °F 84% 29.83 in 10.0 mi South 11.5 mph - N/A   Clear
4:15 AM 65.8 °F - 60.8 °F 84% 29.83 in 10.0 mi South 12.7 mph 18.4 mph N/A   Clear
4:35 AM 65.3 °F - 60.4 °F 84% 29.83 in 10.0 mi South 9.2 mph - N/A   Clear
4:55 AM 65.1 °F - 60.3 °F 84% 29.84 in 10.0 mi South 11.5 mph - N/A   Clear
5:15 AM 64.6 °F - 60.1 °F 85% 29.84 in 10.0 mi South 11.5 mph - N/A   Clear
5:35 AM 64.6 °F - 60.1 °F 85% 29.84 in 10.0 mi South 13.8 mph - N/A   Clear
5:55 AM 64.8 °F - 59.9 °F 84% 29.84 in 10.0 mi South 13.8 mph - N/A   Clear
6:15 AM 64.9 °F - 59.9 °F 84% 29.84 in 10.0 mi South 15.0 mph - N/A   Clear
6:35 AM 64.4 °F - 59.0 °F 83% 29.84 in 10.0 mi South 17.3 mph 20.7 mph N/A   Clear
6:55 AM 64.8 °F - 59.5 °F 83% 29.84 in 10.0 mi South 15.0 mph - N/A   Clear
7:15 AM 64.4 °F - 59.4 °F 84% 29.84 in 10.0 mi South 13.8 mph 19.6 mph N/A   Clear
7:35 AM 64.4 °F - 59.2 °F 83% 29.83 in 10.0 mi South 15.0 mph - N/A   Clear
7:55 AM 64.8 °F - 59.4 °F 83% 29.83 in 10.0 mi South 15.0 mph - N/A   Clear
8:15 AM 66.2 °F - 59.0 °F 78% 29.83 in 10.0 mi South 16.1 mph - N/A   Clear
8:35 AM 65.8 °F - 59.5 °F 80% 29.83 in 10.0 mi South 18.4 mph 24.2 mph N/A   Clear
8:55 AM 67.1 °F - 59.9 °F 78% 29.83 in 10.0 mi South 17.3 mph 23.0 mph N/A   Clear
9:15 AM 68.4 °F - 60.1 °F 75% 29.82 in 10.0 mi South 18.4 mph 27.6 mph N/A   Clear
9:35 AM 69.8 °F - 60.3 °F 72% 29.81 in 10.0 mi South 17.3 mph 27.6 mph N/A   Clear
9:55 AM 71.2 °F - 60.3 °F 68% 29.81 in 10.0 mi South 17.3 mph 28.8 mph N/A   Clear
10:15 AM 72.5 °F - 60.8 °F 67% 29.81 in 10.0 mi South 19.6 mph 26.5 mph N/A   Clear
10:35 AM 73.4 °F - 60.8 °F 65% 29.80 in 10.0 mi South 19.6 mph 28.8 mph N/A   Scattered Clouds
10:55 AM 74.5 °F - 61.0 °F 63% 29.80 in 10.0 mi SSW 13.8 mph 26.5 mph N/A   Scattered Clouds
11:15 AM 75.9 °F - 61.7 °F 61% 29.79 in 10.0 mi SSW 15.0 mph 24.2 mph N/A   Scattered Clouds
11:35 AM 76.5 °F - 61.2 °F 59% 29.78 in 10.0 mi SSW 17.3 mph 29.9 mph N/A   Clear
11:55 AM 77.0 °F - 60.8 °F 57% 29.78 in 10.0 mi South 16.1 mph 26.5 mph N/A   Clear
12:15 PM 77.4 °F - 61.3 °F 58% 29.77 in 10.0 mi South 13.8 mph 27.6 mph N/A   Mostly Cloudy
12:35 PM 76.5 °F - 61.5 °F 60% 29.77 in 10.0 mi SSW 13.8 mph 28.8 mph N/A   Overcast
12:55 PM 76.5 °F - 61.7 °F 60% 29.76 in 10.0 mi SSW 11.5 mph 28.8 mph N/A   Overcast
1:15 PM 77.0 °F - 61.7 °F 59% 29.75 in 10.0 mi SSW 11.5 mph 24.2 mph N/A   Overcast
1:35 PM 77.0 °F - 62.6 °F 61% 29.75 in 10.0 mi SSW 13.8 mph 21.9 mph N/A   Overcast
1:55 PM 77.5 °F - 62.1 °F 59% 29.74 in 10.0 mi South 24.2 mph 29.9 mph N/A   Overcast
2:15 PM 79.2 °F - 62.6 °F 57% 29.74 in 10.0 mi SSW 15.0 mph 29.9 mph N/A   Mostly Cloudy
2:35 PM 77.5 °F - 62.6 °F 60% 29.74 in 10.0 mi SSW 11.5 mph 25.3 mph N/A   Mostly Cloudy
2:55 PM 77.0 °F - 62.6 °F 61% 29.74 in 10.0 mi South 12.7 mph 18.4 mph N/A   Overcast
3:15 PM 77.2 °F - 62.6 °F 61% 29.74 in 10.0 mi South 13.8 mph 17.3 mph N/A   Overcast
3:35 PM 79.2 °F - 62.8 °F 57% 29.73 in 10.0 mi South 17.3 mph 24.2 mph N/A   Mostly Cloudy
3:55 PM 78.6 °F - 62.8 °F 58% 29.73 in 10.0 mi SSW 10.4 mph 23.0 mph N/A   Mostly Cloudy
4:15 PM 76.3 °F - 63.9 °F 65% 29.74 in 10.0 mi SSW 10.4 mph 21.9 mph N/A Rain Light Rain
4:35 PM 60.6 °F - 53.2 °F 77% 29.80 in 10.0 mi West 13.8 mph 27.6 mph N/A   Overcast
4:55 PM 57.4 °F - 51.8 °F 82% 29.84 in 10.0 mi WNW 11.5 mph 26.5 mph N/A Rain Light Rain
5:15 PM 54.0 °F - 49.8 °F 86% 29.85 in 7.0 mi WNW 13.8 mph 23.0 mph N/A Rain Rain
5:35 PM 52.7 °F - 47.8 °F 84% 29.87 in 10.0 mi WNW 15.0 mph 29.9 mph N/A Rain Light Rain
5:55 PM 51.8 °F - 46.6 °F 82% 29.90 in 10.0 mi WNW 10.4 mph 18.4 mph N/A Rain Light Rain
6:15 PM 51.1 °F - 46.8 °F 85% 29.91 in 10.0 mi WNW 9.2 mph 24.2 mph N/A   Overcast
6:35 PM 49.8 °F - 45.3 °F 84% 29.93 in 10.0 mi WNW 16.1 mph 24.2 mph N/A Rain Light Rain
6:55 PM 48.2 °F - 42.8 °F 82% 29.96 in 10.0 mi NW 13.8 mph 20.7 mph N/A   Overcast
7:15 PM 48.2 °F - 43.0 °F 82% 29.96 in 10.0 mi WNW 10.4 mph 23.0 mph N/A   Overcast
7:35 PM 45.7 °F 40.2 °F 43.2 °F 91% 29.98 in 3.0 mi NW 11.5 mph 18.4 mph N/A Rain Heavy Rain
7:55 PM 45.5 °F 42.5 °F 43.5 °F 93% 30.00 in 10.0 mi WNW 5.8 mph 21.9 mph N/A Rain Light Rain
8:15 PM 45.5 °F 40.3 °F 43.3 °F 92% 30.00 in 4.0 mi WNW 10.4 mph 19.6 mph N/A Rain Rain
8:35 PM 45.0 °F 40.6 °F 43.0 °F 93% 30.02 in 5.0 mi WNW 8.1 mph 17.3 mph N/A Rain Rain
8:55 PM 45.1 °F 41.4 °F 43.2 °F 93% 30.02 in 10.0 mi WNW 6.9 mph - N/A Rain Rain
9:15 PM 45.5 °F 40.8 °F 43.2 °F 92% 30.05 in 10.0 mi WNW 9.2 mph 17.3 mph N/A Rain Light Rain
9:35 PM 45.9 °F 40.4 °F 42.6 °F 88% 30.05 in 10.0 mi NW 11.5 mph 18.4 mph N/A   Overcast
9:55 PM 46.0 °F 41.0 °F 41.7 °F 85% 30.06 in 10.0 mi NW 10.4 mph 17.3 mph N/A   Overcast
10:15 PM 46.2 °F 41.2 °F 41.4 °F 83% 30.07 in 10.0 mi NW 10.4 mph - N/A   Overcast
10:35 PM 46.4 °F 41.5 °F 41.4 °F 83% 30.08 in 10.0 mi NW 10.4 mph - N/A   Overcast
10:55 PM 46.4 °F 41.5 °F 40.5 °F 80% 30.10 in 10.0 mi NW 10.4 mph 18.4 mph N/A   Overcast
11:15 PM 46.4 °F 41.1 °F 39.4 °F 77% 30.11 in 10.0 mi NW 11.5 mph 21.9 mph N/A   Overcast
11:35 PM 45.5 °F 40.8 °F 37.9 °F 75% 30.13 in 10.0 mi NW 9.2 mph 20.7 mph N/A   Overcast
11:55 PM 44.6 °F 39.2 °F 37.4 °F 76% 30.14 in 10.0 mi NW 10.4 mph 19.6 mph N/A   Overcast